Regional Weather Roundup
Issued by NWS

Home | Current Version | Previous Version | Text Only | Print | Product List | Glossary On
Versions: 1 2 3 4 5 6 7 8 9 10 11 12 13 14 15 16 17 18 19 20 21 22 23 24 25 26 27 28 29 30 31 32 33 34 35 36 37 38 39 40 41 42 43 44 45 46 47 48 49 50
000
ASUS45 KBOI 282210
RWRID
WEATHER ROUNDUP FOR IDAHO
NATIONAL WEATHER SERVICE BOISE ID
300 PM MST SUN DEC 28 2014

NOTE: "FAIR" INDICATES FEW OR NO CLOUDS BELOW 12000 FEET
WITH NO SIGNIFICANT WEATHER AND/OR OBSTRUCTIONS TO VISIBILITY

IDZ012-014-282300-
SOUTHWEST IDAHO


CITY           SKY/WX    TMP DP  RH WIND       PRES   REMARKS
BOISE          CLOUDY    34  30  85 CALM      30.08S
CALDWELL       CLOUDY    32  25  74 N3        30.11S
MOUNTAIN HOME  PTSUNNY   30  28  93 N8        30.07S WCI  23
$$

IDZ016-017-282300-
SOUTHCENTRAL IDAHO


CITY           SKY/WX    TMP DP  RH WIND       PRES   REMARKS
BURLEY         MOSUNNY   32  23  69 W8        30.00R WCI  25
JEROME         SUNNY     31  24  75 W17       30.02S WCI  19
TWIN FALLS     SUNNY     33  23  66 W21       30.02S WCI  21
$$

IDZ019>023-282300-
SOUTHEAST IDAHO


CITY           SKY/WX    TMP DP  RH WIND       PRES   REMARKS
IDAHO FALLS    CLOUDY    24  19  81 SW12      29.99R WCI  13
POCATELLO      PTSUNNY   28  24  85 SW12      30.01S WCI  18
REXBURG        CLOUDY    20  17  88 SW5       29.98R WCI  13
$$

IDZ006-010-011-018-031-032-282300-
CENTRAL IDAHO MOUNTAINS


CITY           SKY/WX    TMP DP  RH WIND       PRES   REMARKS
MCCALL         CLOUDY    25  20  81 CALM      29.95S
HAILEY         MOSUNNY   25  14  63 E9        29.94S WCI  15
STANLEY          N/A     24  11  57 CALM      29.92S
SALMON         MOSUNNY   25  18  74 CALM      29.98S
CHALLIS        MOSUNNY   21  15  78 NE5       29.93S WCI  15
$$

IDZ002-004-006-007-026-282300-
NORTHERN IDAHO


CITY           SKY/WX    TMP DP  RH WIND       PRES   REMARKS
LEWISTON       LGT RAIN  37  34  89 W8        30.09R WCI  31
LOWELL         NOT AVBL
COEUR D`ALENE  CLOUDY    30  28  93 W6        30.04S WCI  24
MULLAN PASS    SNOW      23  18  81 CALM      29.87R VSB 1/2
$$



USA.gov is the U.S. government's official web portal to all federal, state and local government web resources and services.